Time,TemperatureF,DewpointF,PressureIn,WindDirection,WindDirectionDegrees,WindSpeedMPH,WindSpeedGustMPH,Humidity,HourlyPrecipIn,Conditions,Clouds,dailyrainin,SoftwareType,DateUTC
2013-03-24 00:00:00,47.5,42.6,29.94,NE,55,2.7,7.8,83,-99.99,,,0.00,VWS V14.01,2013-03-24 04:00:00,
2013-03-24 00:02:00,47.5,42.6,29.94,NE,55,2.7,7.8,83,-99.99,,,0.00,VWS V14.01,2013-03-24 04:02:00,
2013-03-24 00:30:00,48.0,43.1,30.03,South,184,0.0,7.4,83,-99.99,,,0.00,VWS V14.01,2013-03-24 04:30:00,
2013-03-24 01:00:00,47.8,43.2,30.03,South,174,0.0,6.9,84,-99.99,,,0.00,VWS V14.01,2013-03-24 05:00:00,
2013-03-24 01:30:00,47.5,43.2,29.97,NE,53,6.3,10.5,85,-99.99,,,0.00,VWS V14.01,2013-03-24 05:30:00,
2013-03-24 02:00:00,46.9,43.3,29.97,ENE,57,2.7,11.2,87,-99.99,,,0.00,VWS V14.01,2013-03-24 06:00:00,
2013-03-24 02:30:00,46.4,43.0,29.94,East,88,0.0,11.2,88,-99.99,,,0.00,VWS V14.01,2013-03-24 06:30:00,
2013-03-24 03:00:00,46.0,43.0,29.91,ENE,69,3.1,11.6,89,-99.99,,,0.00,VWS V14.01,2013-03-24 07:00:00,
2013-03-24 03:30:00,45.9,43.1,29.91,SSE,154,4.0,13.9,90,-99.99,,,0.00,VWS V14.01,2013-03-24 07:30:00,
2013-03-24 04:00:00,46.0,43.6,29.88,East,91,2.7,12.5,91,-99.99,,,0.00,VWS V14.01,2013-03-24 08:00:00,
2013-03-24 04:30:00,45.9,43.7,29.85,NE,49,0.0,14.3,92,-99.99,,,0.00,VWS V14.01,2013-03-24 08:30:00,
2013-03-24 05:00:00,46.2,44.3,29.83,ENE,59,3.1,9.2,93,-99.99,,,0.00,VWS V14.01,2013-03-24 09:00:00,
2013-03-24 05:30:00,45.5,43.6,29.83,NE,54,0.0,6.3,93,-99.99,,,0.00,VWS V14.01,2013-03-24 09:30:00,
2013-03-24 06:00:00,44.6,42.7,29.83,NE,47,0.0,4.0,93,-99.99,,,0.00,VWS V14.01,2013-03-24 10:00:00,
2013-03-24 06:30:00,44.2,42.3,29.85,NE,47,3.6,4.5,93,-99.99,,,0.85,VWS V14.01,2013-03-24 10:30:00,
2013-03-24 07:00:00,44.2,42.3,29.83,NE,47,3.6,4.5,93,-99.99,,,0.85,VWS V14.01,2013-03-24 11:00:00,
2013-03-24 07:30:00,44.8,43.2,29.83,NE,53,0.0,5.4,94,-99.99,,,0.85,VWS V14.01,2013-03-24 11:30:00,
2013-03-24 08:00:00,45.7,44.1,29.80,ENE,66,0.0,4.9,94,-99.99,,,0.85,VWS V14.01,2013-03-24 12:00:00,
2013-03-24 08:30:00,47.1,45.8,29.83,ENE,67,3.6,9.2,95,-99.99,,,0.85,VWS V14.01,2013-03-24 12:30:00,
2013-03-24 09:00:00,47.8,46.5,29.80,SE,126,3.6,9.6,95,-99.99,,,0.93,VWS V14.01,2013-03-24 13:00:00,
2013-03-24 09:30:00,48.7,47.4,29.80,East,91,3.6,9.2,95,-99.99,,,0.93,VWS V14.01,2013-03-24 13:30:00,
2013-03-24 10:00:00,48.6,47.2,29.80,ESE,121,4.9,12.1,95,-99.99,,,0.93,VWS V14.01,2013-03-24 14:00:00,
2013-03-24 10:30:00,48.9,47.5,29.80,NNE,32,3.1,9.2,95,-99.99,,,0.93,VWS V14.01,2013-03-24 14:30:00,
2013-03-24 11:00:00,49.8,48.5,29.80,SSE,156,0.0,7.8,95,-99.99,,,0.93,VWS V14.01,2013-03-24 15:00:00,
2013-03-24 11:30:00,50.7,49.3,29.80,SSE,147,6.3,11.6,95,-99.99,,,0.93,VWS V14.01,2013-03-24 15:30:00,
2013-03-24 12:00:00,52.2,50.8,29.80,East,93,5.8,11.0,95,-99.99,,,0.97,VWS V14.01,2013-03-24 16:00:00,
2013-03-24 12:30:00,53.8,52.4,29.77,South,184,2.7,11.6,95,-99.99,,,0.96,VWS V14.01,2013-03-24 16:30:00,
2013-03-24 13:00:00,55.8,54.3,29.77,SE,128,5.4,9.2,95,-99.99,,,0.96,VWS V14.01,2013-03-24 17:00:00,
2013-03-24 13:30:00,57.9,56.5,29.74,NNE,18,3.6,9.6,95,-99.99,,,0.96,VWS V14.01,2013-03-24 17:30:00,
2013-03-24 14:00:00,59.9,57.9,29.74,SSW,197,2.7,12.1,93,-99.99,,,0.96,VWS V14.01,2013-03-24 18:00:00,
2013-03-24 14:30:00,57.9,52.1,29.74,ENE,60,5.8,11.0,81,-99.99,,,0.96,VWS V14.01,2013-03-24 18:30:00,
2013-03-24 15:00:00,57.7,48.4,29.71,South,176,0.0,9.6,71,-99.99,,,0.96,VWS V14.01,2013-03-24 19:00:00,
2013-03-24 15:30:00,55.9,45.2,29.71,NE,48,4.0,9.6,67,-99.99,,,0.96,VWS V14.01,2013-03-24 19:30:00,
2013-03-24 16:00:00,54.7,43.6,29.68,SSE,161,0.0,10.5,66,-99.99,,,0.96,VWS V14.01,2013-03-24 20:00:00,
2013-03-24 16:30:00,55.2,45.2,29.68,SW,217,4.5,8.7,69,-99.99,,,0.96,VWS V14.01,2013-03-24 20:30:00,
2013-03-24 17:00:00,56.7,42.1,29.68,SSE,148,6.7,13.9,58,-99.99,,,0.96,VWS V14.01,2013-03-24 21:00:00,
2013-03-24 17:30:00,54.5,42.2,29.65,SSW,200,4.9,11.6,63,-99.99,,,0.96,VWS V14.01,2013-03-24 21:30:00,
2013-03-24 18:00:00,51.4,40.9,29.68,SSE,165,0.0,11.6,67,-99.99,,,0.96,VWS V14.01,2013-03-24 22:00:00,
2013-03-24 18:30:00,50.5,41.5,29.65,SSE,153,3.6,12.5,71,-99.99,,,0.96,VWS V14.01,2013-03-24 22:30:00,
2013-03-24 19:00:00,49.1,41.5,29.68,East,98,3.1,11.0,75,-99.99,,,1.00,VWS V14.01,2013-03-24 23:00:00,
2013-03-24 19:30:00,48.4,42.5,29.71,SSW,207,7.4,15.2,80,-99.99,,,1.12,VWS V14.01,2013-03-24 23:30:00,
2013-03-24 20:00:00,47.3,42.7,29.71,South,191,7.4,15.9,84,-99.99,,,1.12,VWS V14.01,2013-03-25 00:00:00,
2013-03-24 20:30:00,45.3,41.4,29.74,SSW,195,5.8,13.4,86,-99.99,,,1.12,VWS V14.01,2013-03-25 00:30:00,
2013-03-24 21:00:00,44.8,40.9,29.74,SSW,196,4.5,9.6,86,-99.99,,,1.12,VWS V14.01,2013-03-25 01:00:00,
2013-03-24 21:30:00,43.9,40.0,29.77,SSW,193,5.8,10.5,86,-99.99,,,1.12,VWS V14.01,2013-03-25 01:30:00,
2013-03-24 22:00:00,42.4,35.8,29.77,South,189,9.6,18.1,77,-99.99,,,1.12,VWS V14.01,2013-03-25 02:00:00,
2013-03-24 22:30:00,38.8,23.6,29.80,SSW,192,6.9,21.9,54,-99.99,,,1.12,VWS V14.01,2013-03-25 02:30:00,
2013-03-24 23:00:00,37.2,23.0,29.83,South,175,8.3,18.1,56,-99.99,,,1.12,VWS V14.01,2013-03-25 03:00:00,
2013-03-24 23:30:00,36.9,23.5,29.83,South,181,8.3,15.9,58,-99.99,,,1.12,VWS V14.01,2013-03-25 03:30:00,